[[{"header":{"parameterUnit":"m.s-1","parameterCategory":1,"la1":30.2992,"la2":30.254,"lo1":-89.0895,"lo2":-89.0443,"dy":0.0025,"dx":0.0025,"nx":19,"ny":19,"refTime":"2026-04-06T21:00:00:Z","depth":0,"parameterNumber":2,"parameterNumberName":"U-component_of_WINDS"},"data":[0,0,0,-9.6162,-9.6166,-9.6311,-9.6312,-9.6542,-9.6544,0,0,0,0,0,0,0,0,0,0,0,-9.6148,-9.615,-9.6162,-9.6166,-9.6311,-9.6312,-9.6541,-9.6544,0,0,0,0,0,0,0,0,0,0,0,-9.6146,-9.615,-9.6153,-9.6167,-9.6311,-9.6312,-9.6541,-9.6415,0,0,0,0,0,0,0,0,0,0,-9.6266,-9.6281,-9.6149,-9.6153,-9.6168,-9.6311,-9.6312,-9.6408,-9.6423,-9.6496,0,-9.657,0,-9.6561,-9.6563,-9.6564,0,0,0,-9.6144,-9.6269,-9.6283,-9.6153,-9.617,-9.6311,-9.624,-9.6416,-9.6433,-9.6516,-9.6572,-9.658,-9.6565,-9.6565,-9.6566,-9.7064,-9.7068,0,0,-9.6136,-9.6189,-9.6272,-9.6295,-9.6277,-9.6235,-9.6244,-9.6425,-9.649,-9.6573,-9.6584,-9.6569,-9.6566,-9.6568,-9.7061,-9.7065,0,0,0,-9.6128,-9.6184,-9.6192,-9.6287,-9.631,-9.624,-9.625,-9.6482,-9.648,-9.6586,-9.6572,-9.6568,-9.6571,-9.7057,-9.7063,-9.728,0,0,0,-9.6122,-9.6179,-9.619,-9.6223,-9.6308,-9.6398,-9.6304,-9.6468,-9.6486,-9.657,-9.6568,-9.6574,-9.7054,-9.706,-9.7266,-9.7374,0,0,0,-9.6128,-9.6179,-9.6211,-9.6226,-9.629,-9.6394,-9.6402,-9.647,-9.6479,-9.6564,-9.6575,-9.7051,-9.7059,-9.7254,-9.7353,-9.7521,0,0,0,-9.6149,-9.6401,-9.6215,-9.6489,-9.629,-9.6528,-9.64,-9.6575,-9.6674,-9.6569,-9.7054,-9.7062,-9.725,-9.734,-9.7508,-9.7671,-9.7745,0,0,-9.6495,-9.6444,-9.6601,-9.6439,-9.6725,-9.6502,-9.6818,-9.6858,-9.6817,-9.6984,-9.6995,-9.7271,-9.7352,-9.7518,-9.8137,-9.8196,0,0,0,-9.6729,-9.6843,-9.6907,-9.7005,-9.7043,-9.7085,-9.7071,-9.7086,-9.7225,-9.6914,-9.7375,-9.7422,-9.7517,-9.7592,-9.7642,-9.7721,-9.7099,-9.7099,-9.7098,-9.7292,-9.7229,-9.7485,-9.744,-9.7536,-9.7521,-9.7593,-9.761,-9.7516,-9.7626,-9.7675,-9.8059,-9.8149,-9.8186,-9.8269,-9.7756,-9.7757,-9.7758,-9.7758,-9.7793,-9.7944,-9.7815,-9.8018,-9.7949,-9.8117,-9.8113,-9.8041,-9.8187,-9.8016,-9.8097,-9.7915,-9.8253,-9.8321,-9.7774,-9.7771,-9.7769,-9.7768,-9.7767,-9.8154,-9.8216,-9.8231,-9.8368,-9.848,-9.8424,-9.8572,-9.8503,-9.8439,-9.8519,-9.8563,-9.8559,-9.8547,-9.8545,-9.8547,-9.8548,-9.8549,-9.855,-9.8551,-9.8523,-9.8534,-9.8667,-9.8731,-9.8786,-9.8849,-9.8837,-9.8889,-9.8928,-9.8866,-9.8866,-9.8761,-9.8298,-9.8183,-9.8571,-9.8567,-9.8565,-9.8563,-9.8562,-9.9053,-9.8923,-9.9129,-9.9185,-9.9254,-9.9371,-9.9282,-9.9393,-9.9425,-9.95,-9.9379,-9.9048,-9.899,-9.895,-9.8854,-9.9392,-9.9392,-9.9392,-9.9392,-9.9358,-9.9323,-9.9519,-9.9612,-9.9695,-9.9637,-9.9871,-9.9866,-9.9839,-9.9855,-9.9767,-9.9634,-9.9597,-9.956,-9.9507,-9.9417,-10.0086,-10.0087,-10.0087,-9.968,-9.965,-9.9864,-9.9838,-9.9887,-9.9931,-10.015,-10.0261,-10.0203,-10.0114,-9.9866,-9.9837,-9.9621,-9.9555,-9.9459,-9.9377,-9.921,0,0]},{"header":{"parameterUnit":"m.s-1","parameterCategory":1,"la1":30.2992,"la2":30.254,"lo1":-89.0895,"lo2":-89.0443,"dy":0.0025,"dx":0.0025,"nx":19,"ny":19,"refTime":"2026-04-06T21:00:00:Z","depth":0,"parameterNumber":3,"parameterNumberName":"V-component_of_WINDS"},"data":[0,0,0,-0.6963,-0.6964,-0.7,-0.7,-0.7051,-0.7051,0,0,0,0,0,0,0,0,0,0,0,-0.6955,-0.6955,-0.6963,-0.6964,-0.7,-0.7,-0.705,-0.7051,0,0,0,0,0,0,0,0,0,0,0,-0.6955,-0.6955,-0.6956,-0.6964,-0.7,-0.7,-0.705,-0.7022,0,0,0,0,0,0,0,0,0,0,-0.6986,-0.6981,-0.6955,-0.6956,-0.6965,-0.7,-0.7,-0.702,-0.7024,-0.7036,0,-0.7047,0,-0.705,-0.7055,-0.7055,0,0,0,-0.6963,-0.6978,-0.6985,-0.6956,-0.6965,-0.7,-0.6984,-0.7022,-0.7026,-0.704,-0.7048,-0.705,-0.7051,-0.7055,-0.7055,-0.7129,-0.7129,0,0,-0.6961,-0.6963,-0.6983,-0.6988,-0.6982,-0.6982,-0.6985,-0.7024,-0.7033,-0.7048,-0.7051,-0.7051,-0.7055,-0.7056,-0.7128,-0.7129,0,0,0,-0.6956,-0.6962,-0.6968,-0.6986,-0.6992,-0.6984,-0.6986,-0.7031,-0.7033,-0.7051,-0.7052,-0.7056,-0.7056,-0.7128,-0.7129,-0.715,0,0,0,-0.6955,-0.6959,-0.6967,-0.6969,-0.6991,-0.7012,-0.6992,-0.703,-0.7035,-0.7052,-0.7056,-0.7057,-0.7127,-0.7128,-0.7149,-0.716,0,0,0,-0.6952,-0.6958,-0.6964,-0.6969,-0.6984,-0.7011,-0.7015,-0.7031,-0.7035,-0.7055,-0.7057,-0.7127,-0.7128,-0.7147,-0.7158,-0.718,0,0,0,-0.695,-0.6984,-0.6965,-0.7004,-0.6984,-0.7024,-0.7015,-0.7045,-0.7065,-0.7056,-0.7128,-0.7128,-0.7147,-0.7157,-0.7178,-0.7198,-0.7207,0,0,-0.6995,-0.699,-0.7013,-0.6996,-0.704,-0.7019,-0.7066,-0.7082,-0.7083,-0.7113,-0.7115,-0.7149,-0.7158,-0.7179,-0.7254,-0.726,0,0,0,-0.7028,-0.7044,-0.7055,-0.7073,-0.7085,-0.7096,-0.7105,-0.7111,-0.7136,-0.7099,-0.7163,-0.7168,-0.718,-0.719,-0.7196,-0.7206,-0.7133,-0.7133,-0.7133,-0.7095,-0.7092,-0.7129,-0.7131,-0.7148,-0.7155,-0.7169,-0.7178,-0.7171,-0.7186,-0.7196,-0.7241,-0.7252,-0.7256,-0.7267,-0.7206,-0.7206,-0.7206,-0.7206,-0.7161,-0.7183,-0.7171,-0.7203,-0.72,-0.7227,-0.7234,-0.7228,-0.7253,-0.7234,-0.7245,-0.7225,-0.7264,-0.7273,-0.7208,-0.7207,-0.7207,-0.7207,-0.7207,-0.7205,-0.7215,-0.722,-0.7244,-0.7263,-0.7263,-0.7286,-0.7283,-0.728,-0.729,-0.7299,-0.7299,-0.7298,-0.7295,-0.7295,-0.7295,-0.7295,-0.7295,-0.7295,-0.7248,-0.7253,-0.7273,-0.7287,-0.7297,-0.731,-0.7316,-0.7326,-0.7336,-0.7332,-0.7332,-0.7323,-0.7268,-0.7254,-0.7298,-0.7297,-0.7297,-0.7297,-0.7297,-0.7316,-0.7299,-0.733,-0.734,-0.7355,-0.7373,-0.7368,-0.7388,-0.7396,-0.7407,-0.7395,-0.7355,-0.735,-0.7346,-0.7334,-0.7396,-0.7396,-0.7396,-0.7396,-0.7353,-0.7349,-0.7378,-0.7394,-0.7409,-0.7407,-0.744,-0.7445,-0.7448,-0.7452,-0.7442,-0.7427,-0.7422,-0.742,-0.7414,-0.7403,-0.7481,-0.7481,-0.7481,-0.7393,-0.7391,-0.7421,-0.7422,-0.7433,-0.7443,-0.7474,-0.7493,-0.7492,-0.7485,-0.7455,-0.7452,-0.7426,-0.7418,-0.741,-0.7401,-0.7381,0,0]}]]